Tracking 35274 objects as of 10-Sep-2026
HD Live streaming from Space Station
objects crossing your sky now

OBJECT D

Track OBJECT D now!
10-day predictions


NORAD ID: 65262
Int'l Code: 2025-180D
Launch date: August 19, 2025
Source: People's Republic of China (PRC)
Launch site: Jiuquan Satellite Launch Center, China (JSC)

Note: This is a ROCKET BODY
Your satellite tracking list
Your tracking list is empty




NASA's NSSDC Master Catalog

Two Line Element Set (TLE):
1 65262U 25180D   26252.56794438  .00003720  00000-0  19680-3 0  9999
2 65262  97.5362  19.0518 0014661  33.6552 326.5608 15.15993138 58447
Source of the keplerian elements: AFSPC